Weather History for KRQB - October, 2012

Change the Weather History Date:

Monday, October 29, 2012

  Actual Average Record
Temperature  
Mean Temperature 40 °F -  
Max Temperature 46 °F 51 °F 73 °F (1989)
Min Temperature 34 °F 31 °F 19 °F (1990)
Degree Days  
Heating Degree Days 25    
Moisture  
Dew Point 22 °F    
Average Humidity 50    
Maximum Humidity 75    
Minimum Humidity 32    
Precipitation  
Precipitation 0.00 in - - ()
Sea Level Pressure  
Sea Level Pressure 30.13 in    
Wind  
Wind Speed 12 mph (North)    
Max Wind Speed 25 mph    
Max Gust Speed 33 mph    
Visibility 10 miles    
Events      
Averages and records for this station are not official NWS values.
T = Trace of Precipitation, MM = Missing Value Source: NWS Daily Summary

Daily Weather History Graph

Daily Weather History Graph

Search for Another Location

Airport or City:

Trip Planner

Search our weather history database for the weather conditions in past years. The results will help you decide how hot, cold, wet, or windy it might be!

Date:

Astronomy

Oct. 29, 2012 Rise Set
Actual Time 8:14 AM EDT 6:36 PM EDT
Civil Twilight 7:44 AM EDT 7:05 PM EDT
Nautical Twilight 7:11 AM EDT 7:39 PM EDT
Astronomical Twilight 6:37 AM EDT 8:12 PM EDT
Moon 6:26 PM EDT (10/29) 8:05 AM EDT (10/29)
Length of Visible Light 11h 20m
Length of Day
10h 21m
Full, 100% of the Moon is Illuminated
Oct 29
Full
Oct 29
Full
Nov 6
Last Quarter
Nov 13
New
Nov 20
First Quarter

Hourly Weather History & Observations

Time (EDT) Temp. Windchill Dew Point Humidity Pressure Visibility Wind Dir Wind Speed Gust Speed Precip Events Conditions
12:14 AM 38.5 °F 32.7 °F 25.5 °F 60% 30.22 in 10.0 mi North 8.1 mph - N/A   Clear
12:35 AM 38.5 °F 31.1 °F 25.7 °F 60% 30.22 in 10.0 mi North 11.5 mph - N/A   Clear
12:54 AM 38.3 °F 32.5 °F 25.7 °F 61% 30.22 in 10.0 mi North 8.1 mph - N/A   Clear
1:15 AM 37.6 °F 31.6 °F 26.1 °F 63% 30.22 in 10.0 mi North 8.1 mph - N/A   Clear
1:35 AM 37.0 °F 32.4 °F 26.6 °F 66% 30.22 in 10.0 mi North 5.8 mph - N/A   Clear
1:54 AM 36.5 °F 30.3 °F 26.6 °F 67% 30.21 in 10.0 mi North 8.1 mph - N/A   Clear
2:14 AM 36.5 °F 30.3 °F 27.0 °F 68% 30.21 in 10.0 mi NNW 8.1 mph - N/A   Clear
2:35 AM 36.0 °F 29.6 °F 27.1 °F 70% 30.21 in 10.0 mi North 8.1 mph - N/A   Clear
2:54 AM 35.8 °F 29.4 °F 27.3 °F 71% 30.21 in 10.0 mi North 8.1 mph - N/A   Clear
3:15 AM 35.1 °F 30.1 °F 27.3 °F 73% 30.21 in 10.0 mi NNW 5.8 mph - N/A   Clear
3:35 AM 35.1 °F 30.1 °F 27.5 °F 74% 30.21 in 10.0 mi North 5.8 mph - N/A   Clear
3:54 AM 34.7 °F 31.8 °F 27.5 °F 75% 30.21 in 10.0 mi NNW 3.5 mph - N/A   Clear
4:15 AM 34.7 °F 30.6 °F 27.3 °F 74% 30.21 in 10.0 mi NNW 4.6 mph - N/A   Clear
4:35 AM 34.7 °F 29.6 °F 26.6 °F 72% 30.21 in 10.0 mi North 5.8 mph - N/A   Clear
4:54 AM 34.9 °F 29.9 °F 25.9 °F 70% 30.21 in 10.0 mi North 5.8 mph - N/A   Clear
5:15 AM 35.2 °F 29.5 °F 24.8 °F 66% 30.21 in 10.0 mi North 6.9 mph - N/A   Clear
5:35 AM 35.4 °F 28.4 °F 24.4 °F 64% 30.20 in 10.0 mi North 9.2 mph - N/A   Clear
5:54 AM 35.6 °F 28.6 °F 23.5 °F 62% 30.20 in 10.0 mi North 9.2 mph - N/A   Clear
6:15 AM 35.8 °F 29.4 °F 23.0 °F 60% 30.20 in 10.0 mi North 8.1 mph - N/A   Clear
7:15 AM 36.1 °F 28.2 °F 22.3 °F 57% 30.20 in 10.0 mi North 11.5 mph - N/A   Clear
7:34 AM 36.3 °F 29.5 °F 21.9 °F 56% 30.21 in 10.0 mi North 9.2 mph 18.4 mph N/A   Clear
7:54 AM 36.5 °F 28.7 °F 21.2 °F 54% 30.21 in 10.0 mi North 11.5 mph 17.3 mph N/A   Clear
8:15 AM 36.5 °F 28.7 °F 19.9 °F 51% 30.21 in 10.0 mi North 11.5 mph 17.3 mph N/A   Clear
8:34 AM 36.7 °F 29.4 °F 19.0 °F 49% 30.21 in 10.0 mi North 10.4 mph 16.1 mph N/A   Clear
8:54 AM 37.0 °F 29.8 °F 18.5 °F 47% 30.21 in 10.0 mi North 10.4 mph 17.3 mph N/A   Clear
9:15 AM 37.4 °F 30.3 °F 21.2 °F 52% 30.21 in 10.0 mi North 10.4 mph 19.6 mph N/A   Clear
9:34 AM 37.8 °F 30.2 °F 22.3 °F 54% 30.21 in 10.0 mi North 11.5 mph 18.4 mph N/A   Clear
9:55 AM 38.8 °F 29.7 °F 21.4 °F 50% 30.21 in 10.0 mi North 17.3 mph 23.0 mph N/A   Clear
10:14 AM 39.4 °F 31.4 °F 21.7 °F 49% 30.20 in 10.0 mi North 13.8 mph 24.2 mph N/A   Clear
10:34 AM 40.1 °F 32.7 °F 23.0 °F 51% 30.20 in 10.0 mi North 12.7 mph 18.4 mph N/A   Clear
10:55 AM 40.8 °F 32.3 °F 22.6 °F 48% 30.19 in 10.0 mi North 17.3 mph 25.3 mph N/A   Clear
11:35 AM 41.9 °F 35.0 °F 21.0 °F 43% 30.18 in 10.0 mi North 12.7 mph 25.3 mph N/A   Clear
11:54 AM 42.8 °F 35.1 °F 20.8 °F 42% 30.18 in 10.0 mi North 16.1 mph 26.5 mph N/A   Clear
12:15 PM 43.3 °F 35.0 °F 20.3 °F 40% 30.17 in 10.0 mi North 19.6 mph 26.5 mph N/A   Clear
12:34 PM 43.9 °F 35.9 °F 19.9 °F 38% 30.17 in 10.0 mi North 18.4 mph 24.2 mph N/A   Clear
12:54 PM 44.6 °F 36.6 °F 19.2 °F 36% 30.17 in 10.0 mi North 19.6 mph 26.5 mph N/A   Clear
1:34 PM 45.3 °F 38.4 °F 19.8 °F 36% 30.14 in 10.0 mi North 16.1 mph 25.3 mph N/A   Clear
1:55 PM 45.9 °F 39.1 °F 18.0 °F 33% 30.14 in 10.0 mi North 16.1 mph 24.2 mph N/A   Clear
2:14 PM 45.9 °F 38.5 °F 17.6 °F 32% 30.13 in 10.0 mi North 18.4 mph 25.3 mph N/A   Clear
2:34 PM 46.0 °F 38.8 °F 18.3 °F 33% 30.12 in 10.0 mi North 18.4 mph 27.6 mph N/A   Clear
2:55 PM 46.2 °F 39.8 °F 17.8 °F 32% 30.12 in 10.0 mi North 15.0 mph 26.5 mph N/A   Clear
3:14 PM 46.4 °F 39.8 °F 18.5 °F 33% 30.11 in 10.0 mi North 16.1 mph 24.2 mph N/A   Clear
3:35 PM 46.4 °F 39.0 °F 18.5 °F 33% 30.11 in 10.0 mi North 19.6 mph 27.6 mph N/A   Clear
3:54 PM 45.9 °F 38.5 °F 18.1 °F 33% 30.11 in 10.0 mi North 18.4 mph 29.9 mph N/A   Clear
4:15 PM 45.9 °F 38.5 °F 19.6 °F 35% 30.10 in 10.0 mi North 18.4 mph 25.3 mph N/A   Clear
4:34 PM 45.5 °F 37.8 °F 18.5 °F 34% 30.10 in 10.0 mi North 19.6 mph 28.8 mph N/A   Clear
4:54 PM 45.5 °F 38.6 °F 19.0 °F 35% 30.09 in 10.0 mi North 16.1 mph 28.8 mph N/A   Clear
5:15 PM 45.1 °F 37.3 °F 20.8 °F 38% 30.09 in 10.0 mi North 19.6 mph 28.8 mph N/A   Clear
5:34 PM 44.6 °F 36.1 °F 21.6 °F 40% 30.08 in 10.0 mi North 21.9 mph 27.6 mph N/A   Clear
5:54 PM 43.9 °F 36.2 °F 22.1 °F 42% 30.08 in 10.0 mi North 17.3 mph 24.2 mph N/A   Clear
6:15 PM 43.7 °F 36.6 °F 21.4 °F 41% 30.08 in 10.0 mi North 15.0 mph 29.9 mph N/A   Clear
6:34 PM 43.2 °F 35.0 °F 21.7 °F 43% 30.07 in 10.0 mi North 18.4 mph 25.3 mph N/A   Clear
6:55 PM 43.0 °F 34.8 °F 22.1 °F 44% 30.06 in 10.0 mi North 18.4 mph 27.6 mph N/A   Clear
7:14 PM 42.8 °F 34.8 °F 22.1 °F 44% 30.07 in 10.0 mi North 17.3 mph 28.8 mph N/A   Clear
7:35 PM 42.8 °F 34.8 °F 21.7 °F 43% 30.05 in 10.0 mi North 17.3 mph 26.5 mph N/A   Clear
7:54 PM 42.8 °F 34.8 °F 22.1 °F 44% 30.05 in 10.0 mi North 17.3 mph 23.0 mph N/A   Clear
8:14 PM 42.4 °F 34.1 °F 22.1 °F 44% 30.04 in 10.0 mi North 18.4 mph 25.3 mph N/A   Clear
8:35 PM 42.1 °F 33.6 °F 22.5 °F 46% 30.03 in 10.0 mi North 18.4 mph 29.9 mph N/A   Clear
8:54 PM 41.9 °F 33.4 °F 22.1 °F 45% 30.02 in 10.0 mi North 18.4 mph 26.5 mph N/A   Clear
9:14 PM 41.9 °F 34.0 °F 22.1 °F 45% 30.02 in 10.0 mi North 16.1 mph 28.8 mph N/A   Clear
9:35 PM 41.9 °F 33.4 °F 22.1 °F 45% 30.01 in 10.0 mi North 18.4 mph 26.5 mph N/A   Clear
9:54 PM 41.7 °F 34.1 °F 22.1 °F 46% 30.00 in 10.0 mi North 15.0 mph 23.0 mph N/A   Clear
10:14 PM 41.9 °F 33.7 °F 21.6 °F 44% 29.98 in 10.0 mi North 17.3 mph 33.4 mph N/A   Clear
10:35 PM 41.9 °F 34.0 °F 21.7 °F 45% 29.97 in 10.0 mi North 16.1 mph 26.5 mph N/A   Clear
10:54 PM 41.9 °F 33.7 °F 21.6 °F 44% 29.97 in 10.0 mi North 17.3 mph 28.8 mph N/A   Clear
11:14 PM 41.9 °F 31.9 °F 19.9 °F 42% 29.95 in 10.0 mi North 25.3 mph 32.2 mph N/A   Clear
11:35 PM 41.9 °F 32.8 °F 19.2 °F 40% 29.93 in 10.0 mi North 20.7 mph 31.1 mph N/A   Clear
11:54 PM 41.5 °F 32.6 °F 18.5 °F 40% 29.93 in 10.0 mi North 19.6 mph 33.4 mph N/A   Clear